GW5351 Weather Reports


Display with metric or nautical units.
time (UTC)temp
F
wind
direction
speed
MPH
gust
MPH
rain 1hr
in
rain 24hr
in
rain mn
in
humidity
%
barometer
mb
20260903214237 77 215 0.0 0.0 0.00 1.59 1.59 98 1014.2
20260903213731 77 249 0.0 0.0 0.00 1.59 1.59 99 1014.3
20260903213228 76 183 0.0 0.0 0.00 1.59 1.59 99 1014.2
20260903212723 76 205 0.0 0.0 0.00 1.59 1.59 99 1014.4
20260903212220 76 184 0.0 1.0 0.00 1.59 1.59 99 1014.4
20260903211719 76 219 1.0 2.0 0.00 1.59 1.59 99 1014.6
20260903211215 76 242 0.0 1.0 0.00 1.59 1.59 99 1014.5
20260903210712 76 269 1.0 2.0 0.00 1.59 1.59 99 1014.7
20260903210207 76 271 0.0 1.0 0.00 1.59 1.59 99 1014.8
20260903205701 76 186 2.0 3.0 0.00 1.59 1.59 99 1014.9
20260903205200 76 225 0.0 1.0 0.00 1.59 1.59 99 1015.1
20260903204655 76 221 0.0 1.0 0.00 1.59 1.59 99 1015.0
20260903204152 76 215 0.0 1.0 0.00 1.59 1.59 99 1014.8
20260903203647 76 208 0.0 2.0 0.07 1.59 1.59 99 1014.8
20260903203142 77 305 2.0 2.0 0.07 1.59 1.59 99 1015.1
20260903202636 76 226 0.0 1.0 0.00 1.58 1.58 99 1015.0
20260903202132 76 222 0.0 1.0 0.00 1.58 1.58 99 1015.2
20260903201632 76 217 0.0 1.0 0.00 1.58 1.58 99 1015.2
20260903201131 77 211 1.0 1.0 0.05 1.58 1.58 99 1015.0
20260903200626 77 269 2.0 2.0 0.05 1.58 1.58 99 1014.8
20260903200122 77 232 0.0 1.0 0.00 1.57 1.57 99 1015.0
20260903195617 77 234 0.0 1.0 0.00 1.57 1.57 99 1014.9
20260903195113 77 252 0.0 3.0 0.00 1.57 1.57 99 1014.8
20260903194609 77 243 1.0 2.0 0.00 1.57 1.57 99 1014.7
20260903194108 77 255 2.0 2.0 0.00 1.57 1.57 99 1014.9
20260903193604 77 209 0.0 2.0 0.00 1.57 1.57 99 1015.1
20260903193100 77 221 0.0 1.0 0.00 1.57 1.57 99 1015.4
20260903192557 77 204 0.0 0.0 0.00 1.57 1.57 99 1015.4
20260903192057 77 232 0.0 1.0 0.00 1.57 1.57 99 1015.5
20260903191553 77 210 0.0 0.0 0.00 1.57 1.57 99 1015.8
20260903191048 77 207 1.0 1.0 0.07 1.57 1.57 99 1015.6
20260903190547 77 237 0.0 2.0 0.24 1.57 1.57 99 1015.5
20260903190047 77 206 0.0 1.0 1.82 1.55 1.55 98 1015.6
20260903185542 77 20 5.0 7.0 4.68 1.52 1.52 98 1015.6
20260903185038 77 204 1.0 3.0 5.10 1.23 1.23 97 1015.9
20260903184529 78 182 1.0 2.0 2.46 0.62 0.62 96 1016.3
20260903184023 78 357 2.0 6.0 1.44 0.31 0.31 95 1016.3
20260903183522 80 1 4.0 8.0 0.78 0.20 0.20 93 1016.1
20260903183017 81 228 0.0 3.0 0.00 0.07 0.07 90 1016.2
20260903182516 81 334 2.0 6.0 0.00 0.07 0.07 89 1016.1
20260903182013 82 175 3.0 4.0 0.00 0.07 0.07 90 1015.6
20260903181511 82 218 1.0 3.0 0.00 0.07 0.07 90 1015.6
20260903181011 83 211 0.0 2.0 0.00 0.07 0.07 88 1015.8
20260903180507 84 224 0.0 2.0 0.00 0.07 0.07 89 1015.8
20260903180006 84 237 1.0 2.0 0.00 0.07 0.07 89 1015.7
20260903175505 84 356 2.0 2.0 0.00 0.07 0.07 89 1015.8
20260903175004 84 194 0.0 1.0 0.00 0.07 0.07 88 1015.7
20260903174459 84 226 0.0 2.0 0.00 0.07 0.07 88 1015.8
20260903173954 84 216 1.0 3.0 0.00 0.07 0.07 88 1015.9
20260903173450 85 225 0.0 3.0 0.00 0.07 0.07 87 1016.1
20260903172945 85 228 0.0 0.0 0.00 0.07 0.07 87 1016.1
20260903172440 85 260 1.0 2.0 0.00 0.07 0.07 87 1015.8
20260903171935 86 219 0.0 2.0 0.00 0.07 0.07 86 1015.7
20260903171430 86 213 0.0 0.0 0.00 0.07 0.07 85 1015.6
20260903170925 86 222 1.0 2.0 0.00 0.07 0.07 85 1015.8
20260903170425 87 191 0.0 0.0 0.00 0.07 0.07 84 1015.7
20260903165923 87 26 0.0 1.0 0.00 0.07 0.07 84 1015.6
20260903165418 87 232 0.0 1.0 0.00 0.07 0.07 84 1015.7
20260903164918 87 205 0.0 0.0 0.00 0.07 0.07 85 1015.7
20260903164413 86 189 0.0 0.0 0.00 0.07 0.07 85 1015.9
20260903163913 86 199 1.0 2.0 0.00 0.07 0.07 85 1016.0
20260903163409 86 211 0.0 1.0 0.00 0.07 0.07 86 1015.8
20260903162905 86 207 0.0 1.0 0.00 0.07 0.07 85 1015.9
20260903162402 86 215 0.0 0.0 0.00 0.07 0.07 86 1015.6
20260903161858 85 206 0.0 0.0 0.00 0.07 0.07 86 1015.7
20260903161357 85 230 0.0 1.0 0.00 0.07 0.07 87 1015.6
20260903160854 85 195 0.0 0.0 0.00 0.07 0.07 87 1015.6
20260903160352 85 211 0.0 0.0 0.00 0.07 0.07 87 1015.9
20260903155851 85 211 0.0 0.0 0.00 0.07 0.07 88 1015.7
20260903155347 85 185 0.0 1.0 0.00 0.07 0.07 88 1015.8
20260903154842 85 208 0.0 0.0 0.00 0.07 0.07 88 1015.9
20260903154338 85 226 0.0 1.0 0.00 0.07 0.07 87 1015.9
20260903153833 85 221 0.0 0.0 0.00 0.07 0.07 87 1015.8
20260903153329 86 179 0.0 1.0 0.00 0.07 0.07 86 1016.1
20260903152825 85 190 0.0 1.0 0.00 0.07 0.07 88 1015.9
20260903152321 85 189 0.0 1.0 0.00 0.07 0.07 89 1015.8
20260903151815 85 236 0.0 0.0 0.00 0.07 0.07 90 1016.1
20260903151311 84 200 0.0 0.0 0.00 0.07 0.07 90 1016.0
20260903150812 84 224 0.0 0.0 0.00 0.07 0.07 91 1016.1
20260903150311 84 246 0.0 0.0 0.00 0.07 0.07 92 1016.1
20260903145806 83 236 0.0 1.0 0.00 0.07 0.07 92 1016.2
20260903145305 83 267 0.0 1.0 0.00 0.07 0.07 92 1016.3
20260903144800 83 157 0.0 1.0 0.00 0.07 0.07 92 1016.3
20260903144256 82 273 0.0 1.0 0.00 0.07 0.07 93 1016.2
20260903143752 82 236 0.0 0.0 0.00 0.07 0.07 93 1016.3
20260903143248 82 258 1.0 2.0 0.00 0.07 0.07 93 1016.3
20260903142743 82 244 0.0 1.0 0.00 0.07 0.07 94 1016.3
20260903142239 82 240 0.0 1.0 0.00 0.07 0.07 94 1016.2
20260903141735 82 221 0.0 0.0 0.00 0.07 0.07 94 1016.2
20260903141230 82 221 0.0 0.0 0.00 0.07 0.07 95 1016.1
20260903140725 81 192 0.0 0.0 0.00 0.07 0.07 95 1016.2
20260903140220 81 191 0.0 0.0 0.00 0.07 0.07 95 1016.0
20260903135716 81 208 0.0 0.0 0.00 0.07 0.07 96 1015.9
20260903135212 81 198 0.0 0.0 0.00 0.07 0.07 96 1015.8
20260903134710 80 206 0.0 0.0 0.00 0.07 0.07 97 1015.9
20260903134207 80 200 0.0 0.0 0.00 0.07 0.07 98 1015.7
20260903133704 80 210 0.0 0.0 0.00 0.07 0.07 98 1015.9
20260903133200 80 210 0.0 0.0 0.00 0.07 0.07 99 1015.8
20260903132654 79 210 0.0 0.0 0.00 0.07 0.07 99 1015.8
20260903132155 79 210 0.0 0.0 0.00 0.07 0.07 99 1015.7
20260903131655 79 210 0.0 0.0 0.00 0.07 0.07 99 1015.7
20260903131149 79 210 0.0 0.0 0.00 0.07 0.07 99 1015.9
20260903130644 79 210 0.0 0.0 0.00 0.07 0.07 99 1015.6
20260903130144 78 210 0.0 0.0 0.00 0.07 0.07 99 1015.6
20260903125642 78 210 0.0 0.0 0.00 0.07 0.07 99 1015.5
20260903125137 79 211 0.0 0.0 0.00 0.07 0.07 99 1015.6
20260903124637 78 211 0.0 0.0 0.00 0.07 0.07 99 1015.4
20260903124131 78 211 0.0 0.0 0.00 0.07 0.07 99 1015.3
20260903123631 78 211 0.0 0.0 0.00 0.07 0.07 99 1015.3
20260903123130 78 211 0.0 0.0 0.00 0.07 0.07 99 1015.2
20260903122630 78 211 0.0 0.0 0.00 0.07 0.07 99 1015.2
20260903122124 78 211 0.0 0.0 0.00 0.07 0.07 99 1015.0
20260903121623 78 211 0.0 0.0 0.00 0.07 0.07 99 1014.8
20260903121119 78 211 0.0 0.0 0.00 0.07 0.07 99 1015.1
20260903120618 78 211 0.0 0.0 0.00 0.07 0.07 99 1014.8
20260903120113 78 211 0.0 0.0 0.00 0.07 0.07 99 1015.0
20260903115611 78 211 0.0 0.0 0.00 0.07 0.07 99 1014.8
20260903115106 78 211 0.0 0.0 0.00 0.07 0.07 99 1014.8
20260903114601 78 211 0.0 0.0 0.00 0.07 0.07 99 1014.8
20260903114058 79 211 0.0 0.0 0.00 0.07 0.07 99 1014.8
20260903113553 79 211 0.0 0.0 0.00 0.07 0.07 99 1014.9
20260903113049 78 211 0.0 0.0 0.00 0.07 0.07 99 1014.8
20260903112545 79 211 0.0 0.0 0.00 0.07 0.07 99 1014.9
20260903112044 79 211 0.0 0.0 0.00 0.07 0.07 99 1014.8
20260903111543 79 211 0.0 0.0 0.00 0.07 0.07 99 1014.8
20260903111040 79 210 0.0 0.0 0.00 0.07 0.07 99 1014.8
20260903110536 79 210 0.0 0.0 0.00 0.07 0.07 99 1014.7
20260903110036 79 210 0.0 0.0 0.00 0.07 0.07 99 1014.8
20260903105531 79 210 0.0 0.0 0.00 0.07 0.07 99 1014.5
20260903105026 79 210 0.0 0.0 0.00 0.07 0.07 99 1014.5
20260903104525 79 210 0.0 0.0 0.00 0.07 0.07 99 1014.6
20260903104021 79 210 0.0 0.0 0.00 0.07 0.07 99 1014.5
20260903103517 79 210 0.0 0.0 0.00 0.07 0.07 99 1014.6
20260903103014 79 210 0.0 0.0 0.00 0.07 0.07 99 1014.6
20260903102508 79 210 0.0 0.0 0.00 0.07 0.07 99 1014.6
20260903102007 79 210 0.0 0.0 0.00 0.07 0.07 99 1014.6
20260903101502 79 210 0.0 0.0 0.00 0.07 0.07 99 1014.3
20260903100958 79 210 0.0 0.0 0.00 0.07 0.07 98 1014.5
20260903100452 79 210 0.0 0.0 0.00 0.07 0.07 99 1014.5
20260903095949 79 210 0.0 0.0 0.00 0.07 0.07 99 1014.3
20260903095444 79 210 0.0 0.0 0.00 0.07 0.07 99 1014.6
20260903094939 79 210 0.0 0.0 0.00 0.07 0.07 99 1014.4
20260903094438 79 210 0.0 0.0 0.00 0.07 0.07 98 1014.4
20260903093935 79 210 0.0 0.0 0.00 0.07 0.07 98 1014.6
20260903093430 79 210 0.0 0.0 0.00 0.07 0.07 98 1014.3
20260903092925 79 210 0.0 0.0 0.00 0.07 0.07 98 1014.5
20260903092425 79 210 0.0 0.0 0.00 0.07 0.07 98 1014.5
20260903091924 79 210 0.0 0.0 0.00 0.07 0.07 98 1014.4
20260903091423 79 210 0.0 0.0 0.00 0.07 0.07 98 1014.4
20260903090918 79 210 0.0 0.0 0.00 0.07 0.07 98 1014.4
20260903090414 79 212 0.0 0.0 0.00 0.07 0.07 98 1014.5
20260903085912 79 211 0.0 0.0 0.00 0.07 0.07 98 1014.4
20260903085410 79 219 0.0 0.0 0.00 0.07 0.07 98 1014.4
20260903084910 79 219 0.0 0.0 0.00 0.07 0.07 98 1014.5
20260903084409 79 201 0.0 0.0 0.00 0.07 0.07 98 1014.3
20260903083904 79 212 0.0 0.0 0.00 0.07 0.07 98 1014.2
20260903083400 79 205 0.0 0.0 0.00 0.07 0.07 99 1014.3
20260903082859 79 216 0.0 1.0 0.00 0.07 0.07 99 1014.4
20260903082354 79 219 0.0 0.0 0.00 0.07 0.07 99 1014.3
20260903081849 79 201 0.0 0.0 0.00 0.07 0.07 99 1014.3
20260903081344 79 201 0.0 0.0 0.00 0.07 0.07 99 1014.2
20260903080841 79 200 0.0 2.0 0.00 0.07 0.07 99 1014.2
20260903080338 79 193 0.0 1.0 0.00 0.07 0.07 99 1014.3
20260903075837 79 205 0.0 0.0 0.00 0.07 0.07 99 1014.2
20260903075333 79 206 0.0 0.0 0.00 0.07 0.07 99 1014.1
20260903074832 79 200 1.0 1.0 0.00 0.07 0.07 99 1013.9
20260903074327 79 196 1.0 2.0 0.00 0.07 0.07 99 1014.0
20260903073822 79 210 0.0 1.0 0.00 0.07 0.07 99 1014.0
20260903073318 79 193 1.0 1.0 0.00 0.07 0.07 99 1014.1
20260903072814 79 199 1.0 2.0 0.00 0.07 0.07 99 1014.2
20260903072309 79 219 2.0 3.0 0.00 0.07 0.07 99 1014.1
20260903071806 79 215 0.0 2.0 0.00 0.07 0.07 99 1014.1
20260903071302 79 205 0.0 2.0 0.00 0.07 0.07 99 1014.1
20260903070801 79 199 0.0 1.0 0.00 0.07 0.07 99 1014.3
20260903070257 79 198 0.0 1.0 0.00 0.07 0.07 99 1014.1
20260903065752 79 204 0.0 1.0 0.00 0.07 0.07 99 1014.4
20260903065251 79 200 0.0 3.0 0.00 0.07 0.07 99 1014.4
20260903064750 79 211 1.0 1.0 0.00 0.07 0.07 99 1014.4
20260903064246 79 200 0.0 1.0 0.00 0.07 0.07 99 1014.6
20260903063742 79 214 0.0 3.0 0.00 0.07 0.07 99 1014.4
20260903063237 79 201 1.0 2.0 0.00 0.07 0.07 99 1014.4
20260903062733 79 208 0.0 1.0 0.00 0.07 0.07 99 1014.4
20260903062232 79 203 0.0 1.0 0.00 0.07 0.07 99 1014.6
20260903061729 78 225 1.0 2.0 0.00 0.07 0.07 99 1014.5
20260903061227 78 183 0.0 1.0 0.00 0.07 0.07 99 1014.6
20260903060723 78 212 0.0 1.0 0.00 0.07 0.07 99 1014.3
20260903060223 78 207 0.0 0.0 0.00 0.07 0.07 99 1014.5
20260903055720 78 199 0.0 1.0 0.00 0.07 0.07 99 1014.6
20260903055219 77 155 1.0 2.0 0.00 0.07 0.07 99 1014.8
20260903054714 77 202 0.0 1.0 0.00 0.07 0.07 99 1014.9
20260903054210 77 203 0.0 0.0 0.07 0.07 0.07 99 1015.0
20260903053706 77 195 0.0 1.0 0.07 0.07 0.07 99 1015.0
20260903053201 77 200 2.0 2.0 0.12 0.06 0.06 99 1015.0
20260903052657 77 200 1.0 2.0 0.17 0.06 0.06 99 1015.0
20260903052153 77 245 0.0 1.0 0.17 0.04 0.04 99 1015.3
20260903051653 77 245 0.0 0.0 0.12 0.03 0.03 99 1015.7
20260903051148 77 245 0.0 0.0 0.07 0.01 0.01 99 1015.7
20260903050644 77 246 0.0 1.0 0.07 0.01 0.01 99 1015.7
20260903050137 77 246 0.0 0.0 0.07 0.00 0.00 99 1015.7
20260903045637 77 246 0.0 1.0 0.07 1.17 1.17 99 1015.6
20260903045134 77 246 0.0 0.0 0.00 1.16 1.16 99 1015.8
20260903044629 77 247 0.0 0.0 0.00 1.16 1.16 99 1015.7
20260903044125 77 248 0.0 0.0 0.00 1.16 1.16 99 1015.8
20260903043621 77 248 0.0 0.0 0.00 1.16 1.16 99 1016.0
20260903043120 77 248 0.0 0.0 0.00 1.16 1.16 99 1015.9
20260903042620 77 248 0.0 0.0 0.00 1.16 1.16 99 1016.2
20260903042115 77 248 0.0 0.0 0.05 1.16 1.16 99 1016.2
20260903041612 77 248 0.0 0.0 0.05 1.16 1.16 99 1016.2
20260903041108 77 248 0.0 1.0 0.00 1.15 1.15 99 1016.4
20260903040606 77 249 0.0 1.0 0.00 1.15 1.15 99 1016.4
20260903040103 77 245 0.0 2.0 0.00 1.15 1.15 99 1016.3
20260903035558 77 213 0.0 0.0 0.00 1.15 1.15 99 1016.1
20260903035054 77 213 0.0 1.0 0.00 1.15 1.15 99 1016.0
20260903034549 77 213 0.0 0.0 0.00 1.15 1.15 99 1015.7
20260903034044 76 213 0.0 0.0 0.00 1.15 1.15 99 1015.7
20260903033538 76 213 0.0 0.0 0.00 1.15 1.15 99 1015.5
20260903033034 77 213 0.0 0.0 0.00 1.15 1.15 99 1015.4
20260903032529 76 227 1.0 1.0 0.00 1.15 1.15 99 1015.3
20260903032024 76 218 0.0 0.0 0.00 1.15 1.15 99 1015.4
20260903031524 76 219 0.0 0.0 0.00 1.15 1.15 99 1015.3
20260903031019 76 219 0.0 1.0 0.00 1.15 1.15 99 1015.2
20260903030515 76 221 0.0 0.0 0.00 1.15 1.15 99 1015.3
20260903030011 76 223 0.0 1.0 0.00 1.15 1.15 99 1015.3
20260903025506 76 239 0.0 0.0 0.00 1.15 1.15 99 1015.2
20260903025001 76 186 0.0 1.0 0.00 1.15 1.15 99 1015.0
20260903024500 76 172 2.0 2.0 0.00 1.15 1.15 99 1014.9
20260903023955 76 191 1.0 1.0 0.00 1.15 1.15 99 1014.9
20260903023451 76 202 0.0 0.0 0.00 1.15 1.15 99 1014.8
20260903022946 77 236 1.0 1.0 0.00 1.15 1.15 99 1014.6
20260903022445 77 222 0.0 1.0 0.00 1.15 1.15 99 1014.4
20260903021943 77 233 1.0 2.0 0.00 1.15 1.15 98 1014.4
20260903021439 77 201 1.0 2.0 0.00 1.15 1.15 98 1014.1
20260903020934 77 275 1.0 2.0 0.00 1.15 1.15 98 1013.9
20260903020430 77 184 2.0 2.0 0.00 1.15 1.15 98 1014.0
20260903015924 77 212 2.0 6.0 0.00 1.15 1.15 98 1013.9
20260903015420 77 320 1.0 3.0 0.00 1.15 1.15 98 1013.9
20260903014915 77 20 2.0 6.0 0.00 1.15 1.15 98 1014.0
20260903014414 77 212 0.0 1.0 0.00 1.15 1.15 98 1013.9
20260903013910 77 224 1.0 4.0 0.00 1.15 1.15 98 1013.8
20260903013409 77 177 1.0 2.0 0.00 1.15 1.15 98 1013.7
20260903012909 77 237 2.0 3.0 0.00 1.15 1.15 98 1013.7
20260903012403 77 157 3.0 8.0 0.00 1.15 1.15 98 1013.9
20260903011902 77 230 1.0 3.0 0.00 1.15 1.15 98 1013.9
20260903011402 77 238 3.0 6.0 0.07 1.15 1.15 98 1014.0
20260903010857 77 215 1.0 4.0 0.19 1.15 1.15 98 1014.0
20260903010353 77 222 2.0 6.0 0.40 1.14 1.14 98 1014.3
20260903005850 77 27 4.0 8.0 1.72 1.12 1.12 98 1014.2
20260903005346 77 332 4.0 10.0 2.83 1.07 1.07 97 1013.9
20260903004843 78 148 4.0 9.0 3.24 0.79 0.79 96 1014.5
20260903004338 79 74 4.0 6.0 3.26 0.57 0.57 95 1014.5
20260903003833 80 214 0.0 0.0 1.21 0.23 0.23 92 1015.0
20260903003332 81 220 1.0 3.0 0.00 0.03 0.03 88 1014.7
20260903002832 80 240 9.0 15.0 0.00 0.03 0.03 89 1014.0
20260903002327 81 276 5.0 7.0 0.00 0.03 0.03 89 1013.8
20260903001822 81 245 3.0 3.0 0.00 0.03 0.03 89 1013.6
20260903001317 82 274 2.0 6.0 0.00 0.03 0.03 87 1013.1
20260903000817 82 330 4.0 7.0 0.00 0.03 0.03 86 1013.0
20260903000312 83 332 3.0 3.0 0.00 0.03 0.03 83 1012.9
20260902235810 84 215 1.0 3.0 0.00 0.03 0.03 82 1013.0
20260902235306 84 283 2.0 6.0 0.00 0.03 0.03 80 1012.8
20260902234806 85 8 3.0 6.0 0.00 0.03 0.03 79 1012.6
20260902234305 86 175 3.0 6.0 0.00 0.03 0.03 77 1012.5
20260902233759 86 291 1.0 4.0 0.00 0.03 0.03 75 1012.5
20260902233259 87 274 2.0 3.0 0.00 0.03 0.03 74 1012.3
20260902232758 87 310 2.0 2.0 0.00 0.03 0.03 73 1012.4
20260902232257 87 221 0.0 2.0 0.00 0.03 0.03 73 1012.1
20260902231756 87 109 1.0 2.0 0.00 0.03 0.03 73 1012.3
20260902231253 87 283 0.0 2.0 0.00 0.03 0.03 73 1012.2
20260902230753 87 210 0.0 3.0 0.00 0.03 0.03 73 1012.3
20260902230251 87 359 3.0 4.0 0.00 0.03 0.03 72 1012.4
20260902225746 87 291 1.0 2.0 0.00 0.03 0.03 73 1012.5
20260902225241 87 226 0.0 1.0 0.00 0.03 0.03 72 1012.5
20260902224740 87 274 2.0 2.0 0.00 0.03 0.03 72 1012.4
20260902224236 88 337 4.0 6.0 0.00 0.03 0.03 71 1012.6
20260902223732 89 305 2.0 4.0 0.00 0.03 0.03 76 1012.3
20260902223231 90 267 2.0 2.0 0.00 0.03 0.03 80 1012.3
20260902222731 90 237 0.0 0.0 0.00 0.03 0.03 74 1012.3
20260902222230 90 257 1.0 1.0 0.00 0.03 0.03 73 1012.2
20260902221725 88 236 0.0 0.0 0.00 0.03 0.03 77 1012.2
20260902221224 88 236 0.0 0.0 0.00 0.03 0.03 80 1012.3
20260902220720 87 236 0.0 0.0 0.00 0.03 0.03 82 1012.1
20260902220219 87 244 1.0 2.0 0.00 0.03 0.03 80 1012.1
20260902215715 88 253 1.0 2.0 0.00 0.03 0.03 87 1012.3
20260902215210 88 240 1.0 1.0 0.00 0.03 0.03 84 1012.3
20260902214707 88 224 0.0 1.0 0.00 0.03 0.03 83 1012.4